SCP
1 1 0 0 0 0 0 0 0 0 0 0 0 0 0 0 0 0 0 0 0 0 0 1 1 1 1 1 1 1 1 1 1 1 1 1 1 1 1 1 1 1 1 1 1 1 1 1 1
1 1 0 0 0 0 0 0 0 0 0 0 0 0 0 0 0 0 0 0 0 0 0 1 1 1 1 1 1 1 1 1 1 1 1 1 1 1 1 1 1 1 1 1 1 1 2 1 1
1 0 0 0 0 0 0 0 0 0 0 0 0 0 0 0 0 0 0 0 0 0 0 1 1 1 1 1 1 1 1 1 1 1 1 1 1 1 1 2 2 1 2 2 2 2 2 1 1
0 0 0 0 0 0 0 0 0 0 0 0 0 0 0 0 0 0 0 0 0 0 0 1 1 1 1 1 1 1 1 1 1 1 1 1 1 1 1 1 2 2 2 2 2 3 2 1 1
0 0 0 0 0 0 0 0 0 0 0 0 0 0 0 0 0 0 0 0 0 0 0 1 1 1 1 1 1 1 1 1 1 1 1 1 1 1 1 1 2 2 2 2 3 3 2 1 1
0 0 0 0 0 0 0 0 0 0 0 0 0 0 0 0 0 0 0 0 0 0 0 0 1 1 1 1 1 1 1 1 1 1 1 1 1 1 1 1 1 2 2 2 2 2 1 1 1
0 0 0 0 0 0 0 0 0 0 0 0 0 0 0 0 0 0 0 0 0 0 0 0 0 1 1 1 1 1 1 1 1 1 1 1 1 1 1 1 1 1 1 2 1 1 1 1 1
0 0 0 0 0 0 0 0 0 0 0 0 0 0 0 0 0 0 0 1 0 0 0 0 0 0 0 0 0 0 0 0 0 0 0 0 0 0 1 1 1 1 1 1 1 1 1 1 1
0 0 0 0 0 0 0 0 0 0 0 0 0 0 0 0 0 0 1 1 1 0 0 0 0 0 0 0 0 0 0 0 0 0 0 0 0 0 0 0 1 1 1 1 1 1 1 1 0
0 0 0 0 0 0 0 0 0 0 0 0 0 0 0 0 0 0 1 1 1 1 1 0 0 0 0 0 0 0 0 0 0 0 0 0 0 0 0 0 0 0 1 1 1 1 1 0 0
0 0 0 0 0 0 0 0 0 0 0 0 0 0 0 0 0 0 1 1 1 1 1 0 0 1 1 0 0 0 0 0 0 0 0 0 0 0 0 0 0 0 0 0 1 1 0 0 0
0 0 0 0 0 0 0 0 0 0 0 0 0 0 0 0 0 0 0 1 1 1 1 1 1 1 1 1 0 0 0 0 0 0 0 0 0 0 0 0 0 0 0 0 0 0 0 0 0
0 0 0 0 0 0 0 0 0 0 0 0 0 0 0 0 0 0 0 1 1 1 1 1 1 1 1 1 0 0 0 0 0 0 0 0 0 0 0 0 0 0 0 0 0 0 0 0 0
0 0 0 0 0 0 0 0 0 0 0 0 0 0 0 0 0 0 1 1 1 1 1 1 1 1 1 1 0 0 0 0 0 0 0 0 0 0 0 0 0 0 0 0 0 0 0 0 0
0 0 0 0 0 0 0 0 0 0 0 0 0 0 0 0 0 0 1 1 1 1 2 2 2 1 1 1 1 0 0 0 0 0 0 0 0 0 0 0 0 0 0 0 0 0 0 0 0
0 0 0 0 0 0 0 0 0 0 0 0 0 0 0 0 0 0 0 1 1 1 2 2 2 2 1 1 1 1 0 0 0 0 0 0 0 0 0 0 0 0 0 0 0 0 0 0 0
0 0 0 0 0 0 0 0 0 0 0 0 0 0 0 0 0 0 0 1 1 2 2 3 3 3 2 1 1 1 0 0 0 0 0 0 0 0 0 0 0 0 0 0 0 0 0 0 0
0 0 0 0 0 0 0 0 0 0 0 0 0 0 0 0 0 0 0 1 1 2 2 3 3 3 3 2 1 1 1 1 0 0 0 0 0 0 0 0 0 0 0 0 0 0 0 0 0
0 0 0 0 0 0 0 0 0 0 0 0 0 0 0 0 0 0 0 1 1 2 2 3 3 4 3 2 2 2 1 1 1 0 0 0 0 0 0 0 0 0 0 0 0 0 0 0 0
0 0 0 0 0 0 0 0 0 0 0 0 0 0 0 0 0 0 0 1 1 2 2 3 3 4 3 3 2 2 2 1 1 1 0 0 0 0 0 0 0 0 0 0 0 0 0 0 0
0 0 0 0 0 0 0 0 0 0 0 0 0 0 0 0 0 0 0 0 1 1 2 3 3 3 3 2 2 2 2 1 1 1 1 1 1 1 0 0 0 0 0 0 0 0 0 0 0
0 0 0 0 0 0 0 0 0 0 0 0 0 0 0 0 1 1 1 1 1 1 2 2 3 3 3 2 2 2 2 2 1 1 1 1 1 1 1 0 0 0 0 0 0 0 0 0 0
0 0 0 0 0 0 0 0 0 0 0 0 0 0 0 1 1 1 1 1 1 1 1 2 2 3 3 2 2 2 2 2 2 1 1 1 1 1 1 1 0 0 0 0 0 0 0 0 0
0 0 0 0 0 0 0 0 0 0 0 0 0 0 0 1 1 1 1 1 2 1 1 2 2 2 2 2 2 2 2 2 1 1 1 1 1 1 1 1 1 0 0 0 0 0 0 0 0
0 0 0 0 0 0 0 0 0 0 0 0 0 0 1 1 1 1 1 1 1 1 1 1 2 2 3 3 2 2 2 2 1 1 1 1 1 1 1 1 1 1 0 0 0 0 0 0 0
0 0 0 0 0 0 0 0 0 0 0 0 0 0 1 1 1 1 1 1 1 1 1 1 2 2 3 3 3 2 2 2 1 1 1 1 1 1 1 1 1 1 1 0 0 0 0 0 0
0 0 0 0 0 0 0 0 0 0 0 0 0 0 0 1 0 0 1 1 1 1 1 1 1 2 2 2 2 2 2 2 1 1 0 0 0 1 1 1 1 1 1 1 0 0 0 0 0
0 0 0 0 0 0 0 0 0 0 0 0 0 0 0 1 1 1 1 1 1 1 1 1 1 1 1 2 2 2 1 1 1 0 0 0 0 0 0 1 1 1 1 1 0 0 0 0 0
0 0 0 0 0 0 0 0 0 0 0 0 0 0 0 0 1 1 1 1 1 1 1 1 1 1 1 1 1 1 1 1 0 0 0 0 0 0 0 0 0 0 0 0 0 0 0 0 0
0 0 0 0 0 0 0 0 0 0 0 0 0 0 0 0 0 1 0 1 1 1 1 1 1 1 1 0 1 1 1 0 0 0 0 0 0 0 0 0 0 0 0 0 0 0 0 0 0
Wind_Speed
1 1 3 3 6 6 3 1 2 2 3 4 7 8 7 5 4 4 2 4 6 4 2 3 6 6 7 7 7 7 8 8 8 8 8 8 8 7 7 7 7 7 7 8 8 8 8 8 8
1 1 3 4 5 4 1 1 3 2 5 7 7 6 7 5 4 5 3 5 6 5 3 4 6 6 7 7 7 8 8 8 8 8 9 8 8 8 7 7 7 7 8 8 8 8 8 8 8
1 1 4 4 3 3 2 2 4 3 4 5 5 5 5 4 3 3 4 7 6 5 3 4 7 6 7 7 7 7 7 7 8 8 8 8 8 7 7 7 8 8 8 8 9 9 8 8 8
2 4 5 5 4 1 4 3 4 5 6 5 6 5 3 2 4 5 7 8 7 4 3 4 7 7 7 7 7 8 8 8 8 8 8 8 8 7 7 8 8 9 9 9 8 8 8 8 8
4 4 5 3 2 1 2 4 4 5 4 4 6 6 3 1 5 8 8 8 7 5 3 4 7 7 7 8 7 8 8 8 8 8 8 8 8 8 9 8 9 9 9 8 8 8 8 8 8
4 4 4 2 2 2 2 4 6 7 6 5 7 6 2 1 5 7 8 7 7 6 4 4 7 8 7 7 7 8 8 9 9 9 9 9 8 8 8 8 8 8 8 8 8 8 8 8 8
4 4 3 3 2 2 3 4 6 6 5 4 6 5 2 1 3 6 7 7 5 5 4 3 3 4 6 7 7 8 8 8 8 8 9 8 8 8 9 8 8 8 8 8 7 7 8 7 8
4 4 2 1 3 1 1 3 4 5 4 4 5 6 4 5 5 7 6 5 5 4 4 3 2 2 2 2 6 7 7 7 7 7 7 7 7 8 8 7 7 7 7 7 6 7 7 7 8
4 5 1 1 3 1 2 4 3 4 5 3 3 5 7 7 6 6 5 3 3 4 3 3 3 3 2 2 3 4 5 5 5 5 6 5 3 3 4 5 6 6 6 6 6 6 7 7 7
5 4 3 2 3 3 3 4 3 4 5 4 4 4 7 7 7 7 6 5 4 4 4 3 4 3 3 3 2 1 1 2 2 2 2 2 2 2 3 4 6 6 6 6 8 8 7 6 3
4 4 3 1 2 3 3 2 2 6 3 5 8 8 7 7 6 6 6 6 5 5 5 4 4 4 3 2 2 1 1 1 1 2 2 2 2 2 2 2 3 3 5 4 5 5 3 3 3
3 2 3 2 1 2 3 3 3 4 6 8 10 10 8 8 7 7 6 5 5 5 5 5 5 4 3 3 2 2 1 1 1 1 3 3 2 2 1 1 1 2 2 2 3 2 3 3 3
3 2 2 3 2 3 4 3 4 3 5 8 8 8 8 7 6 6 6 6 6 5 5 5 5 4 3 3 2 2 2 2 2 2 2 3 3 2 2 1 1 2 2 2 2 3 4 4 4
3 3 2 2 2 2 4 2 3 3 6 8 8 7 6 6 7 5 5 5 5 6 5 5 5 5 5 3 2 2 2 2 2 2 2 3 3 3 2 2 2 2 2 2 3 3 3 3 3
2 3 1 1 1 2 4 1 3 6 7 7 7 7 6 6 7 7 7 7 7 6 5 5 6 5 5 4 3 3 2 2 2 2 2 3 3 3 3 2 2 2 2 3 3 4 3 3 3
2 2 1 3 2 2 5 3 5 5 8 7 6 5 5 6 6 6 7 7 7 6 6 5 5 6 5 4 3 2 2 2 2 2 2 3 3 4 3 2 2 2 2 2 3 3 3 3 3
1 1 3 3 3 3 4 4 5 5 7 7 6 6 6 5 4 5 6 7 7 7 7 6 5 5 4 4 3 3 2 2 2 2 2 2 3 4 3 2 2 3 2 2 3 2 2 2 2
3 2 2 4 3 3 3 4 4 5 7 7 6 6 6 6 6 6 6 7 7 7 6 6 5 5 4 3 3 2 2 1 1 2 2 3 3 4 3 2 2 3 3 2 2 3 2 2 1
3 2 2 4 3 3 4 5 5 6 5 6 6 6 6 7 6 5 6 6 6 6 6 6 5 5 4 3 2 2 1 1 1 1 2 3 3 4 3 3 2 2 3 2 3 3 3 2 2
1 1 2 3 2 2 3 4 4 6 7 8 9 8 8 6 4 4 5 5 6 7 6 5 5 5 4 3 3 2 2 1 1 1 2 3 3 3 3 3 2 2 2 3 2 2 2 1 1
1 2 3 3 1 2 1 3 3 3 4 4 6 7 8 9 9 7 6 5 6 6 6 6 5 5 4 3 2 3 3 2 2 1 1 1 2 3 3 3 3 2 2 2 2 2 3 2 1
3 4 3 2 2 2 1 2 6 4 3 5 6 6 7 8 8 8 7 6 6 6 6 5 5 5 4 4 4 4 3 2 1 1 0 1 1 1 2 3 3 2 2 2 2 2 2 3 2
5 3 1 1 1 1 1 2 6 1 4 6 7 7 8 8 9 9 8 7 6 6 6 6 5 5 4 4 5 5 3 2 1 1 1 1 0 1 1 2 2 2 1 2 2 2 2 2 3
2 3 5 5 4 2 4 4 6 5 8 6 6 7 7 8 8 8 7 6 5 5 5 5 6 4 4 5 5 5 5 4 3 2 1 1 0 0 0 1 2 2 2 1 2 2 2 2 2
4 5 4 4 3 5 3 3 7 6 6 7 8 7 6 7 8 8 8 7 6 6 6 5 6 4 4 4 4 5 5 5 5 3 2 2 1 1 1 1 1 1 1 1 1 2 1 2 2
2 7 6 3 3 4 2 3 5 3 1 3 5 6 6 6 7 7 8 7 6 6 6 5 5 4 4 4 4 4 4 4 3 4 3 3 2 2 2 2 2 2 2 1 1 1 1 1 1
3 3 6 6 1 2 3 2 4 3 3 3 3 4 5 6 7 7 7 6 6 6 5 6 5 4 4 4 4 4 4 3 4 4 3 2 2 2 2 2 2 2 1 2 2 1 1 1 1
4 5 4 4 2 2 3 2 3 3 2 1 2 3 4 4 6 6 6 7 6 5 4 4 5 5 4 4 4 4 4 4 4 3 3 2 2 2 2 2 2 2 1 1 1 1 1 1 1
1 2 4 3 4 4 2 5 4 6 4 3 3 4 4 5 5 5 6 6 5 5 5 4 4 3 3 4 3 3 3 3 3 3 3 3 3 2 3 3 3 3 2 2 1 1 1 1 1
3 3 5 4 2 3 3 5 4 3 3 3 2 2 3 4 4 4 4 4 4 4 4 4 4 3 4 4 3 3 3 3 3 3 3 3 3 3 3 3 3 3 3 3 3 2 2 2 2
Wind_Direction
332 51 87 58 54 52 58 38 110 66 62 63 76 85 89 72 91 127 214 142 133 137 139 105 91 86 85 82 79 78 78 77 79 82 82 81 80 82 83 92 93 91 90 88 88 87 84 81 76
359 63 66 59 77 75 43 135 94 93 130 120 84 82 81 75 91 120 131 143 136 132 124 108 99 92 88 85 84 82 79 78 81 84 85 84 81 80 78 87 94 93 92 91 90 86 84 81 76
326 76 78 69 84 135 151 173 116 87 100 103 85 58 73 104 117 134 152 141 131 123 120 113 106 98 95 92 91 87 83 80 83 86 86 85 81 78 78 87 95 96 95 92 88 85 82 82 78
64 45 54 68 76 151 158 160 127 97 69 68 95 70 59 98 138 142 143 136 131 134 135 130 115 105 101 100 100 95 88 83 83 88 88 86 81 76 83 90 95 97 96 93 91 87 83 81 80
66 68 60 63 68 51 118 124 109 89 85 80 94 96 79 39 124 135 141 140 138 143 149 138 124 116 109 105 101 96 92 89 86 88 87 84 80 81 88 92 95 93 90 89 87 84 83 80 80
56 64 78 82 68 46 73 93 92 88 104 111 105 109 121 152 127 141 144 145 145 149 153 143 132 127 119 113 110 104 99 99 95 91 89 87 83 82 88 91 93 92 88 84 81 81 83 81 79
96 83 104 122 101 66 104 114 105 109 109 125 125 107 136 184 159 141 142 141 141 142 142 137 139 131 128 124 120 117 113 108 101 94 90 88 85 84 89 89 87 85 81 79 77 79 79 79 77
123 97 69 88 113 97 105 95 111 112 107 126 120 130 169 197 165 131 131 129 133 134 138 144 141 124 119 119 128 126 120 116 106 98 95 91 84 81 86 86 86 83 80 78 78 73 75 81 77
92 81 102 180 145 146 110 96 72 81 94 91 104 149 167 160 137 120 116 114 131 137 144 147 152 153 150 149 137 124 115 110 106 96 92 85 64 61 73 84 86 83 78 73 69 68 72 73 70
88 115 194 198 164 148 120 117 122 86 81 81 85 106 131 135 133 135 141 149 156 161 168 162 162 166 166 159 132 108 95 89 96 94 86 76 66 60 73 75 79 75 65 58 62 60 61 58 55
114 151 168 141 148 134 111 87 106 115 125 155 150 153 148 143 148 152 159 162 168 169 166 168 169 168 164 156 144 124 102 105 103 112 111 98 81 60 55 50 48 48 54 47 49 49 46 53 60
114 165 149 159 143 129 133 127 101 137 183 175 163 159 155 156 165 168 168 165 154 146 156 162 166 162 164 151 146 144 143 130 114 116 120 115 106 89 80 70 58 50 57 63 54 56 53 56 57
125 164 163 178 152 156 130 131 135 162 168 157 155 148 155 164 171 176 168 159 149 144 148 150 148 147 150 136 145 129 134 131 128 114 117 120 119 112 100 86 75 71 73 78 73 69 61 57 58
172 154 164 170 147 142 134 141 124 184 155 150 150 161 166 166 166 158 157 160 160 153 152 148 142 143 135 131 133 134 138 127 108 105 114 117 121 122 114 96 78 68 75 81 81 77 73 61 62
128 105 38 284 193 172 114 50 194 187 149 152 166 172 171 172 163 163 168 167 168 164 155 149 148 139 130 127 129 129 134 125 115 108 108 116 124 123 119 106 92 87 90 90 81 74 72 69 64
75 94 209 266 202 181 124 219 238 186 152 164 182 181 176 178 170 170 163 161 161 159 153 149 141 134 131 131 130 121 123 122 119 111 107 109 119 119 109 108 103 100 92 90 90 82 79 67 62
23 193 220 252 209 173 155 215 238 189 163 176 187 186 179 177 175 174 164 160 159 159 152 145 137 137 136 131 121 122 125 121 119 105 105 109 112 114 113 114 108 99 90 89 99 87 98 92 74
225 216 215 220 229 168 186 225 222 197 174 183 189 187 181 181 193 180 165 160 158 155 149 150 144 143 135 121 99 87 82 82 89 95 104 107 109 110 109 110 108 103 97 89 97 104 92 105 109
206 206 245 244 231 173 208 225 219 204 184 180 189 188 182 191 191 173 161 149 144 146 146 154 150 155 142 134 129 128 132 119 84 86 103 107 111 116 120 118 111 109 117 128 127 120 103 96 109
211 215 262 277 256 183 222 245 232 209 203 190 187 190 185 183 169 168 156 148 152 158 156 158 160 162 157 157 160 156 147 143 124 88 84 100 116 117 122 128 128 124 118 112 122 129 130 143 133
283 198 212 223 331 10 83 320 277 250 222 199 190 187 178 176 175 173 164 158 153 158 164 159 162 157 160 149 118 94 68 50 44 50 51 67 114 119 122 130 129 134 134 142 150 154 145 162 198
238 235 204 181 101 278 159 271 277 247 230 211 203 190 182 181 174 172 168 164 164 171 165 158 158 157 155 139 131 134 133 141 189 179 149 36 71 105 124 132 133 130 133 146 167 148 148 150 171
222 240 205 186 139 311 288 186 277 245 222 223 209 199 190 181 175 173 173 172 166 163 158 159 155 153 146 140 142 138 131 150 144 125 127 115 51 85 122 135 128 129 141 155 156 134 143 156 167
180 43 35 50 75 285 237 181 262 229 215 209 203 196 188 179 174 171 168 157 154 152 151 154 152 154 156 154 153 151 149 147 135 139 159 181 292 338 360 137 139 146 149 163 168 147 144 163 162
76 78 32 6 11 257 246 180 248 251 224 193 183 182 181 172 166 165 161 158 157 154 157 155 154 160 165 159 164 165 161 159 161 167 172 175 194 226 236 165 166 167 174 174 161 143 160 173 164
169 139 152 194 228 277 320 228 265 275 212 144 153 156 157 161 162 163 165 161 159 159 161 160 163 169 170 169 173 167 162 162 169 173 175 184 198 212 207 185 179 180 180 166 149 148 180 159 164
143 172 173 150 211 271 289 296 324 20 53 83 115 135 155 170 171 169 162 158 160 160 167 175 172 171 175 177 169 163 168 169 175 177 178 184 197 204 187 188 185 180 177 164 154 182 198 136 182
154 153 97 111 159 269 292 257 238 231 204 166 149 178 181 174 172 171 166 165 166 166 172 179 175 179 183 179 177 172 180 180 180 173 179 188 196 197 174 179 172 176 182 172 153 184 204 158 200
139 112 113 125 159 164 244 270 250 209 194 184 202 199 190 178 174 172 174 174 170 169 169 168 175 178 181 186 188 179 188 188 179 181 191 189 186 186 191 195 185 189 198 199 193 222 195 183 191
172 165 140 151 225 177 180 270 312 161 156 156 169 179 185 175 170 165 161 162 167 173 173 177 182 189 198 191 187 196 200 192 185 193 201 189 188 193 196 191 186 194 196 192 192 211 211 200 199